When you browse on this site, cookies collect data to enhance your experience and personalize the content and advertising you see.
Visit our Privacy Policy to learn more. By continuing to use the site, you agree to this use of cookies and data.
  • In Latvia
  • List of Countries
  • For 7 days
  • Water Temperature
  • Satellite Maps
  • Weather Map
  • Weather Widgets
  • user-avatar
    Login

    Hourly Weather Uige

    Today, 18 April, Thursday

    Time Temperature Precipitation Wind Pressure Humidity
    00:00 +23°C° 0.1 mm 1 mps 691 mmHg 95%
    01:00 +23°C° 0 mm 1 mps 691 mmHg 95%
    02:00 +23°C° 0 mm 1 mps 691 mmHg 95%
    03:00 +23°C° 0 mm 1 mps 691 mmHg 95%
    04:00 +23°C° 0 mm 1 mps 690 mmHg 95%
    05:00 +23°C° 0 mm 1 mps 691 mmHg 95%
    06:00 +23°C° 0 mm 1 mps 691 mmHg 94%
    07:00 +23°C° 0 mm 1 mps 691 mmHg 93%
    08:00 +25°C° 0.2 mm 1 mps 691 mmHg 86%
    09:00 +27°C° 0.2 mm 2 mps 692 mmHg 80%
    10:00 +28°C° 0.2 mm 2 mps 692 mmHg 73%
    11:00 +30°C° 0.6 mm 2 mps 692 mmHg 67%
    12:00 +31°C° 0.6 mm 2 mps 691 mmHg 62%
    13:00 +32°C° 0.6 mm 2 mps 691 mmHg 56%
    14:00 +32°C° 0.4 mm 1 mps 690 mmHg 57%
    15:00 +32°C° 0.4 mm 1 mps 690 mmHg 57%
    16:00 +32°C° 0.4 mm 1 mps 689 mmHg 57%
    17:00 +30°C° 0.2 mm 1 mps 689 mmHg 64%
    18:00 +28°C° 0.2 mm 1 mps 689 mmHg 72%
    19:00 +26°C° 0.2 mm 1 mps 689 mmHg 79%
    20:00 +25°C° 0.2 mm 1 mps 690 mmHg 81%
    21:00 +25°C° 0.2 mm 1 mps 690 mmHg 83%
    22:00 +24°C° 0.2 mm 1 mps 690 mmHg 85%
    23:00 +22°C° 0.4 mm 0 mps 691 mmHg 86%

    Tomorrow, 19 April, Friday

    Time Temperature Precipitation Wind Pressure Humidity
    00:00 +21°C° 0.4 mm 0 mps 691 mmHg 88%
    01:00 +21°C° 0.4 mm 0 mps 691 mmHg 90%
    02:00 +21°C° 0 mm 0 mps 690 mmHg 90%
    03:00 +23°C° 0 mm 1 mps 690 mmHg 91%
    04:00 +22°C° 0 mm 1 mps 690 mmHg 91%
    05:00 +23°C° 0.1 mm 1 mps 690 mmHg 90%
    06:00 +23°C° 0.1 mm 1 mps 691 mmHg 90%
    07:00 +24°C° 0.1 mm 1 mps 691 mmHg 89%
    08:00 +26°C° 0 mm 1 mps 692 mmHg 79%
    09:00 +29°C° 0 mm 1 mps 692 mmHg 68%
    10:00 +31°C° 0 mm 2 mps 693 mmHg 58%
    11:00 +32°C° 0.3 mm 2 mps 692 mmHg 55%
    12:00 +34°C° 0.3 mm 2 mps 692 mmHg 53%
    13:00 +35°C° 0.3 mm 2 mps 691 mmHg 50%
    14:00 +32°C° 0.7 mm 1 mps 691 mmHg 60%
    15:00 +30°C° 0.7 mm 1 mps 690 mmHg 70%
    16:00 +29°C° 0.7 mm 1 mps 689 mmHg 79%
    17:00 +27°C° 0.6 mm 1 mps 689 mmHg 84%
    18:00 +25°C° 0.6 mm 1 mps 690 mmHg 89%
    19:00 +24°C° 0.6 mm 1 mps 690 mmHg 94%
    20:00 +24°C° 0 mm 1 mps 690 mmHg 94%
    21:00 +23°C° 0 mm 1 mps 691 mmHg 94%
    22:00 +23°C° 0 mm 1 mps 691 mmHg 95%
    23:00 +23°C° 0 mm 1 mps 691 mmHg 95%

    Day after tomorrow, 20 April, Saturday

    Time Temperature Precipitation Wind Pressure Humidity
    00:00 +23°C° 0 mm 1 mps 691 mmHg 96%
    01:00 +23°C° 0 mm 1 mps 691 mmHg 97%
    02:00 +22°C° 0.3 mm 1 mps 690 mmHg 97%
    03:00 +22°C° 0.3 mm 1 mps 690 mmHg 97%
    04:00 +20°C° 0.3 mm 0 mps 690 mmHg 98%
    05:00 +23°C° 0 mm 1 mps 691 mmHg 96%
    06:00 +23°C° 0 mm 1 mps 691 mmHg 95%
    07:00 +23°C° 0 mm 1 mps 691 mmHg 93%
    08:00 +25°C° 0 mm 1 mps 691 mmHg 88%
    09:00 +26°C° 0 mm 1 mps 692 mmHg 82%
    10:00 +28°C° 0 mm 1 mps 692 mmHg 77%
    11:00 +30°C° 0 mm 1 mps 692 mmHg 67%
    12:00 +33°C° 0 mm 1 mps 691 mmHg 56%
    13:00 +35°C° 0 mm 1 mps 691 mmHg 45%
    14:00 +32°C° 0 mm 0 mps 690 mmHg 50%
    15:00 +30°C° 0 mm 0 mps 689 mmHg 55%
    16:00 +29°C° 0 mm 0 mps 689 mmHg 60%
    17:00 +28°C° 0.2 mm 0 mps 689 mmHg 64%
    18:00 +26°C° 0.2 mm 0 mps 689 mmHg 69%
    19:00 +25°C° 0.2 mm 0 mps 690 mmHg 74%
    20:00 +24°C° 1.2 mm 0 mps 690 mmHg 80%
    21:00 +23°C° 1.2 mm 0 mps 690 mmHg 86%
    22:00 +24°C° 1.2 mm 1 mps 691 mmHg 92%
    23:00 +24°C° 0.4 mm 1 mps 690 mmHg 93%

    21 April, Sunday

    Time Temperature Precipitation Wind Pressure Humidity
    00:00 +24°C° 0.4 mm 1 mps 690 mmHg 94%
    01:00 +23°C° 0.4 mm 1 mps 690 mmHg 95%
    02:00 +23°C° 0 mm 1 mps 690 mmHg 96%
    03:00 +23°C° 0 mm 1 mps 690 mmHg 98%
    04:00 +23°C° 0 mm 1 mps 689 mmHg 99%
    05:00 +23°C° 0 mm 1 mps 690 mmHg 98%
    06:00 +23°C° 0 mm 1 mps 691 mmHg 97%
    07:00 +24°C° 0 mm 1 mps 691 mmHg 95%
    08:00 +26°C° 0.2 mm 1 mps 691 mmHg 86%
    09:00 +28°C° 0.2 mm 1 mps 692 mmHg 77%
    10:00 +30°C° 0.2 mm 1 mps 692 mmHg 67%
    11:00 +31°C° 0.1 mm 1 mps 692 mmHg 62%
    12:00 +32°C° 0.1 mm 1 mps 691 mmHg 57%
    13:00 +33°C° 0.1 mm 1 mps 690 mmHg 52%
    14:00 +32°C° 1.9 mm 1 mps 690 mmHg 62%
    15:00 +30°C° 1.9 mm 1 mps 689 mmHg 72%
    16:00 +29°C° 1.9 mm 1 mps 688 mmHg 81%
    17:00 +27°C° 1.2 mm 1 mps 689 mmHg 85%
    18:00 +26°C° 1.2 mm 1 mps 689 mmHg 88%
    19:00 +22°C° 1.2 mm 0 mps 689 mmHg 92%
    20:00 +22°C° 0.2 mm 0 mps 690 mmHg 92%
    21:00 +22°C° 0.2 mm 0 mps 690 mmHg 93%
    22:00 +22°C° 0.2 mm 0 mps 690 mmHg 94%
    23:00 +21°C° 0.1 mm 0 mps 690 mmHg 94%

    22 April, Monday

    Time Temperature Precipitation Wind Pressure Humidity
    00:00 +21°C° 0.1 mm 0 mps 690 mmHg 94%
    01:00 +21°C° 0.1 mm 0 mps 689 mmHg 94%
    02:00 +21°C° 0 mm 0 mps 689 mmHg 94%
    03:00 +23°C° 0 mm 1 mps 689 mmHg 94%
    04:00 +22°C° 0 mm 1 mps 689 mmHg 95%
    05:00 +23°C° 0 mm 1 mps 689 mmHg 94%
    06:00 +23°C° 0 mm 1 mps 689 mmHg 93%
    07:00 +23°C° 0 mm 1 mps 690 mmHg 92%
    08:00 +26°C° 0 mm 1 mps 691 mmHg 81%
    09:00 +29°C° 0 mm 1 mps 691 mmHg 69%
    10:00 +31°C° 0 mm 1 mps 692 mmHg 57%
    11:00 +33°C° 0 mm 1 mps 691 mmHg 52%
    12:00 +34°C° 0 mm 1 mps 691 mmHg 47%
    13:00 +36°C° 0 mm 1 mps 690 mmHg 41%
    14:00 +34°C° 0 mm 1 mps 690 mmHg 47%
    15:00 +33°C° 0 mm 1 mps 689 mmHg 52%
    16:00 +32°C° 0 mm 1 mps 689 mmHg 58%
    17:00 +29°C° 1.6 mm 1 mps 689 mmHg 69%
    18:00 +27°C° 1.6 mm 1 mps 689 mmHg 80%
    19:00 +25°C° 1.6 mm 1 mps 689 mmHg 91%
    20:00 +24°C° 0.2 mm 1 mps 689 mmHg 92%
    21:00 +24°C° 0.2 mm 1 mps 690 mmHg 92%
    22:00 +24°C° 0.2 mm 1 mps 690 mmHg 93%
    23:00 +24°C° 0 mm 1 mps 690 mmHg 93%

    23 April, Tuesday

    Time Temperature Precipitation Wind Pressure Humidity
    00:00 +23°C° 0 mm 1 mps 689 mmHg 93%
    01:00 +23°C° 0 mm 1 mps 689 mmHg 93%
    02:00 +23°C° 0 mm 1 mps 689 mmHg 93%
    03:00 +23°C° 0 mm 1 mps 689 mmHg 94%
    04:00 +22°C° 0 mm 1 mps 689 mmHg 95%
    05:00 +23°C° 0 mm 1 mps 689 mmHg 93%
    06:00 +23°C° 0 mm 1 mps 690 mmHg 92%
    07:00 +23°C° 0 mm 1 mps 690 mmHg 91%
    08:00 +26°C° 0 mm 1 mps 691 mmHg 79%
    09:00 +29°C° 0 mm 1 mps 691 mmHg 67%
    10:00 +32°C° 0 mm 1 mps 692 mmHg 55%
    11:00 +33°C° 0 mm 1 mps 691 mmHg 52%
    12:00 +34°C° 0 mm 1 mps 691 mmHg 48%
    13:00 +36°C° 0 mm 2 mps 690 mmHg 44%
    14:00 +34°C° 0 mm 1 mps 690 mmHg 48%
    15:00 +33°C° 0 mm 1 mps 689 mmHg 51%
    16:00 +32°C° 0 mm 1 mps 689 mmHg 54%
    17:00 +31°C° 0 mm 1 mps 689 mmHg 61%
    18:00 +27°C° 0 mm 0 mps 689 mmHg 67%
    19:00 +25°C° 0 mm 0 mps 689 mmHg 73%
    20:00 +24°C° 0.8 mm 0 mps 690 mmHg 79%
    21:00 +25°C° 0.8 mm 1 mps 690 mmHg 85%
    22:00 +25°C° 0.8 mm 1 mps 690 mmHg 91%
    23:00 +24°C° 0.3 mm 1 mps 690 mmHg 92%
    Show more